Location: Street
(51.1247°N, 2.7429°W)
Time: 10:17:45
(UTC+00:00)

X-37B - Visible Passes

Search period start: 08 December 2022 00:00
Search period end: 18 December 2022 00:00
Orbit: 277 x 277 km, 45.0° (Epoch: 01 November)

Date Brightness Start Highest point End Pass type
(mag) Time Alt. Az. Time Alt. Az. Time Alt. Az.
10 Dec 2.7 17:32:57 10° S 17:33:49 11° SSE 17:34:43 10° SE visible
11 Dec 2.4 17:32:50 10° SSW 17:34:19 15° SSE 17:35:21 12° SE visible
12 Dec 2.3 17:33:05 10° SW 17:34:50 17° S 17:36:00 13° SE visible
13 Dec 2.2 17:33:31 10° SW 17:35:23 19° S 17:36:40 14° SE visible
14 Dec 2.2 17:34:02 10° SW 17:35:56 20° S 17:37:22 13° SE visible
15 Dec 2.4 17:34:38 10° SW 17:36:28 18° S 17:38:09 11° SE visible
16 Dec 2.7 17:35:21 10° SW 17:37:01 16° SSW 17:38:40 10° SSE visible
17 Dec 3.0 17:36:14 10° SW 17:37:31 13° SSW 17:38:48 10° SSE visible
